Location: Rioux
(40.7500°S, 175.7500°E)
Time: 11:03:47
(UTC+00:00)

ATLAS 3B R/B - Pass Details

Date: 12 June 2024
Orbit: 941 x 1253 km, 63.8° (Epoch: 20 July)

Event Time Altitude Azimuth Distance (km) Brightness Sun altitude
Exits shadow 16:49:06 19° 355° (N) 2,126 4.2 -31.2°
Drops below altitude 10° 16:50:55 10° 3° (N) 2,726 4.9 -30.9°
Sets 16:53:39 0° 10° (N) 3,701 5.7 -30.3°
